Regional Weather Roundup
Issued by NWS Green Bay, WI

Home | Current Version | Previous Version | Graphics & Text | Print | Product List | Glossary Off
Versions: 1 2 3 4 5 6 7 8 9 10 11 12 13 14 15 16 17 18 19 20 21 22 23 24 25 26 27 28 29 30 31 32 33 34 35 36 37 38 39 40 41 42 43 44 45 46 47 48 49 50

000
ASUS43 KGRB 221100
RWRGRB

NORTH-CENTRAL AND NORTHEAST WISCONSIN REGIONAL WEATHER ROUNDUP
NATIONAL WEATHER SERVICE GREEN BAY WI
600 AM CDT FRI SEP 22 2017

WIZ005-009-010>012-018-019-221200-
NORTH CENTRAL WISCONSIN

CITY           SKY/WX    TMP DP  RH WIND       PRES   REMARKS
IRONWOOD       CLOUDY    70  66  87 VRB6      29.92F
MANITOWISH WTR NOT AVBL
ARBOR VITAE    NOT AVBL
EAGLE RIVER    NOT AVBL
LAND O LAKES   NOT AVBL
RHINELANDER    CLEAR     68  67  96 S3        30.00S
PHILLIPS       PTCLDY    68  67  97 S5        29.95F
ANTIGO         NOT AVBL
TOMAHAWK       NOT AVBL
MERRILL        NOT AVBL
$$

WIZ013-073-221200-
NORTHEAST WISCONSIN

CITY           SKY/WX    TMP DP  RH WIND       PRES   REMARKS
IRON MOUNTAIN  CLOUDY    64  62  93 SE3       30.00R FOG
MARINETTE      FOG       62  62 100 CALM      30.02R VSB 1/4
$$

WIZ017-030-035>037-045-221200-
CENTRAL WISCONSIN

CITY           SKY/WX    TMP DP  RH WIND       PRES   REMARKS
MEDFORD        NOT AVBL
WAUSAU         PTCLDY    67  65  93 SE6       29.98S
MOSINEE        CLOUDY    66  66 100 SE6       30.00F
MARSHFIELD     CLEAR     68  64  87 S6        29.98S
WISC RAPIDS    MOCLDY    68  66  93 S3        30.00S
STEVENS POINT  NOT AVBL
WAUPACA        NOT AVBL
SHAWANO        NOT AVBL
CLINTONVILLE   NOT AVBL
WAUTOMA        CLEAR     62  61  96 CALM      30.01R
$$

WIZ038-039-048-051-221200-
FOX VALLEY

CITY           SKY/WX    TMP DP  RH WIND       PRES   REMARKS
NWS GREEN BAY  CLEAR     66  66 100 S5        30.01S FOG
APPLETON       PTCLDY    68  68 100 VRB5      30.00S
OSHKOSH        CLEAR     68  67  96 S8        30.01S
FOND DU LAC    CLEAR     71  66  84 S6        30.02S
$$

WIZ022-050-052-221200-
EAST CENTRAL WISCONSIN

CITY           SKY/WX    TMP DP  RH WIND       PRES   REMARKS
EPHRAIM        NOT AVBL
WASHINGTON ISL NOT AVBL
STURGEON BAY   CLEAR     68  67  96 S6        30.00S FOG
MANITOWOC      FOG       66  65  96 CALM      30.03S VSB 1/2
SHEBOYGAN      FOG       65  65 100 S5        30.03S VSB 1
$$

LMZ563-521-522-541>543-221200-
LAKESHORE

STATION/POSITION TIME  TEMP    WIND        PRES    VSBY  WAVE
                       AIR SEA DIR/SP/G                  HT/PER
                 (UTC) (F)     (DEG/KT/KT) (MB)    (MI)  (FT/S)
SHEBOYGAN LKSHOR 1000   69     170/  8/  8 1016.4R
KEWAUNEE LKSHORE 1030   64     170/  4/  5 1015.8R
NORTHPORT PIER   1040   68     150/  5/  7 1015.9S
N MID LAKE BUOY  0950   69 66  170/  8/ 10 1016.7R         0
S GREEN BAY BUOY 1030   69 67  190/  6/  8 1015.8R
MENOMINEE LKSHOR 1030   68      CALM  /  1 1015.8R
$$




USA.gov is the U.S. government's official web portal to all federal, state and local government web resources and services.